Regional Weather Roundup
Issued by NWS Charleston, SC

Current Version | Previous Version | Graphics & Text | Print | Product List | Glossary On
Versions: 1 2 3 4 5 6 7 8 9 10 11 12 13 14 15 16 17 18 19 20 21 22 23 24 25 26 27 28 29 30 31 32 33 34 35 36 37 38 39 40 41 42 43 44 45 46 47 48 49 50
000
ASUS42 KCHS 270912
RWRCHS

REGIONAL WEATHER ROUNDUP
NATIONAL WEATHER SERVICE CHARLESTON SC
500 AM EDT WED MAY 27 2015

NOTE: "FAIR" INDICATES FEW OR NO CLOUDS BELOW 12,000 FEET WITH NO
SIGNIFICANT WEATHER AND/OR OBSTRUCTIONS TO VISIBILITY.

NOT ALL STATIONS ARE QUALITY CONTROLLED BY THE NATIONAL
WEATHER SERVICE. USE DATA WITH CAUTION...ESPECIALLY
DEWPOINT OBSERVATIONS.

SCZ027-030-031-034>040-042>050-271000-
...SOUTHEAST SOUTH CAROLINA...

CITY           SKY/WX    TMP DP  RH WIND       PRES   REMARKS
N CHARLESTON   CLOUDY    73  69  87 S5        30.18S
WATERFRONT PAR   N/A     76  72  87 S7        30.15F
MOUNT PLEASANT LGT RAIN  73  72  94 SE5       30.18F
JOHNS ISLAND   CLOUDY    75  72  88 CALM      30.18S
PINOPOLIS      NOT AVBL
MONCKS CORNER  FAIR      72  70  94 CALM      30.18S
SUMMERVILLE    FAIR      70  70 100 CALM      30.19S
BEAUFORT MCAS  MOCLDY    77  71  82 S3        30.17F
BEAUFORT ARPT  FAIR      73  72  94 CALM      30.17S
HILTON HEAD IS MOCLDY    75  72  88 SE5       30.18F
WALTERBORO     CLOUDY    68  68 100 E3        30.19S
ALLENDALE      FAIR      68  68 100 CALM      30.18R

...SOUTHERN MIDLANDS AND PEE DEE...

CITY           SKY/WX    TMP DP  RH WIND       PRES   REMARKS
GEORGETOWN     NOT AVBL
KINGSTREE      NOT AVBL
ORANGEBURG     CLOUDY    69  67  93 CALM      30.19R
BARNWELL       PTSUNNY   70  68  94 CALM      30.20S
AIKEN          FAIR      63  63 100 CALM      30.24R
MANNING        NOT AVBL
COLUMBIA       MOCLDY    68  64  87 CALM      30.19R
SUMTER         PTCLDY    68  66  93 CALM      30.18R
FLORENCE       PTCLDY    71  69  93 S5        30.19R
MYRTLE BEACH   NOT AVBL
N MYRTLE BEACH NOT AVBL

$$

GAZ063-065-086>088-099>101-113>116-118-119-134>141-150-271000-
...SOUTHEAST GEORGIA...

CITY           SKY/WX    TMP DP  RH WIND       PRES   REMARKS
SAVANNAH ARPT  MOCLDY    73  69  87 S3        30.17R
HUNTER AAF     MOCLDY    73  72  95 S2        30.15R
FORT STEWART   NOT AVBL
STATESBORO     CLEAR     67  32  27 CALM      30.18S
SYLVANIA       MOSUNNY   68  68 100 CALM      30.19R
CLAXTON        FAIR      66  66 100 CALM      30.18R

...CSRA...CENTRAL AND FAR SOUTHEAST GEORGIA...

CITY           SKY/WX    TMP DP  RH WIND       PRES   REMARKS
THOMSON        MOCLDY    69  69 100 CALM      30.24S
AUGUSTA-BUSH   MOCLDY    67  66  97 CALM      30.19S FOG
AUGUSTA-DANIEL MOCLDY    70  67  90 CALM      30.20S
SWAINSBORO     CLOUDY   N/A N/A N/A CALM      30.19S
VIDALIA        CLOUDY    70  68  94 CALM      30.18S
EASTMAN        CLOUDY    69  69 100 CALM      30.20S
HAZLEHURST     FAIR      69  69 100 CALM      30.16F
ALMA           PTCLDY    68  67  96 CALM      30.16F
WAYCROSS       MOCLDY    69  69 100 CALM      30.15S
JESUP          FAIR      70  68  94 CALM      30.17S
BAXLEY         CLOUDY    70  68  94 NW3       30.17R FOG
BRUNSWICK      MOCLDY    77  68  73 SE5       30.16F
SAINT SIMONS   NOT AVBL

$$

SCZ027-028-034-036>038-045-046-048>050-GAZ119-141-271000-
...LAKE AND SUPPLEMENTAL COASTAL OBSERVATIONS...

STATION/POSITION TIME  TEMP    WIND        PRES    WAVE   SWELL
                       AIR SEA DIR/SP/G            HT/PER HT/PER/DIR
                 (UTC) (F)     (DEG/KT/KT) (MB)    (FT/S) (FT/S/D)
UPR LAKE MARION  NOT AVBL
WINYAH BAY       0745   75     180/  3     1022.0
LAKE MURRAY      0800   69      CALM  /  2 1021.7R
ACE BASIN NERRS  NOT AVBL
FORT PULASKI     0800   76 78  150/  7/ 10 1022.1F
SAPELO ISLAND    0800   76     140/  7     1021.0F

$$

ANZ835-935-AMZ111-154-330-350-352-354-370-450-454-472-271000-
...C-MAN AND BUOY OBSERVATIONS...

STATION/POSITION TIME  TEMP    WIND        PRES    WAVE   SWELL
                       AIR SEA DIR/SP/G            HT/PER HT/PER/DIR
                 (UTC) (F)     (DEG/KT/KT) (MB)    (FT/S) (FT/S/D)
BUOY 41004       0850   78 76  150/ 12/ 14 1021.9F   3/ 7   3/ 7
BUOY 41008       0850   77 77  140/ 12/ 14 1021.2F   3/ 6   2/100/ 6
FOLLY BEACH CMAN 0900   76     160/  9/ 10 1022.0F
CAPERS NEARSHORE 0808   76     190/  6/ 10 1022.5F
FRIPP NEARSHORE  0800   76     160/ 12/ 12 1021.3F


STATION/POSITION TIME  TEMP    WIND        PRES    WAVE   SWELL
                       AIR SEA DIR/SP/G            HT/PER HT/PER/DIR
                 (UTC) (F)     (DEG/KT/KT) (MB)    (FT/S) (FT/S/D)
5E ST. MARYS GA  0821      79                N/A     3/ 5
FRYING PAN BUOY  0850   77 74  210/  8/ 10 1024.1S   3/ 7   3/110/ 7
BUOY 41025       0850   74 78  210/ 12/ 16 1024.9S   3/ 5   2/120/ 6
CAPE LOOKOUT NC  0900   73     210/  4/  5 1024.2R
BUOY 41002       0850   72 74   90/  6/  8 1025.0F   4/ 7   3/120/ 7
BUOY 41010       0820   77 81   90/ 10/ 12 1021.9F
ST AUGUSTINE FL  0900   77 78  120/ 17/ 18 1020.7F


$$


USA.gov is the U.S. government's official web portal to all federal, state and local government web resources and services.